Terminal Aerodrome Forecast
Issued by NWS

Home | Current Version | Previous Version | Text Only | Print | Product List | Glossary On
Versions: 1 2 3 4 5 6 7 8 9 10 11 12 13 14 15 16 17
000
FTUS43 KFGF 280500
TAFDVL
TAF
KDVL 280536Z 2806/2906 05009KT P6SM OVC023
      TEMPO 2806/2809 OVC015
     FM281200 03009KT P6SM SCT250
      AMD LTD TO CLD VIS AND WIND=

USA.gov is the U.S. government's official web portal to all federal, state and local government web resources and services.